Weather History for Alexandria Esle, LA

Change the Weather History Date:

Wednesday, June 12, 2013

  Actual Average Record
Temperature  
Mean Temperature 83 °F -  
Max Temperature 93 °F 91 °F 98 °F (1963)
Min Temperature 73 °F 67 °F 54 °F (1988)
Cooling Degree Days 18    
Growing Degree Days 33 (Base 50)    
Moisture  
Dew Point 73 °F    
Average Humidity 83    
Maximum Humidity 100    
Minimum Humidity 50    
Precipitation  
Precipitation 0.00 in - - ()
Sea Level Pressure  
Sea Level Pressure 30.05 in    
Wind  
Wind Speed 1 mph (SSW)    
Max Wind Speed 9 mph    
Max Gust Speed -    
Visibility 6 miles    
Events Fog    
Averages and records for this station are not official NWS values.
T = Trace of Precipitation, MM = Missing Value Source: NWS Daily Summary

Daily Weather History Graph

Daily Weather History Graph

Search for Another Location

Airport:

Trip Planner

Search our weather history database for the weather conditions in past years. The results will help you decide how hot, cold, wet, or windy it might be!

Date:

Astronomy

Jun. 12, 2013 Rise Set
Actual Time 6:04 AM CDT 8:14 PM CDT
Civil Twilight 5:36 AM CDT 8:42 PM CDT
Nautical Twilight 5:02 AM CDT 9:16 PM CDT
Astronomical Twilight 4:25 AM CDT 9:53 PM CDT
Moon 9:33 AM CDT (6/12) 11:02 PM CDT (6/12)
Length of Visible Light 15h 06m
Length of Day
14h 10m
Waxing Crescent, 14% of the Moon is Illuminated
Jun 12
Waxing Crescent
Jun 16
First Quarter
Jun 23
Full
Jun 29
Last Quarter
Jul 8
New

Hourly Weather History & Observations

Time (CDT) Temp. Heat Index Dew Point Humidity Pressure Visibility Wind Dir Wind Speed Gust Speed Precip Events Conditions
12:53 AM 75.9 °F - 73.9 °F 94% 30.04 in 6.0 mi Calm Calm - N/A   Clear
1:35 AM 75.2 °F - 73.4 °F 94% 30.04 in 2.5 mi Calm Calm - N/A   Clear
1:42 AM 75.2 °F - 73.4 °F 94% 30.04 in 5.0 mi Calm Calm - N/A   Clear
1:53 AM 75.9 °F - 73.9 °F 94% 30.04 in 5.0 mi Calm Calm - N/A   Clear
2:10 AM 75.2 °F - 73.4 °F 94% 30.04 in 2.5 mi Calm Calm - N/A   Clear
2:20 AM 75.2 °F - 73.4 °F 94% 30.04 in 3.0 mi Calm Calm - N/A   Clear
2:23 AM 75.2 °F - 73.4 °F 94% 30.04 in 1.8 mi Calm Calm - N/A   Partly Cloudy
2:34 AM 73.4 °F - 73.4 °F 100% 30.04 in 0.5 mi Calm Calm - N/A Fog Fog
2:53 AM 75.0 °F - 73.0 °F 94% 30.04 in 1.0 mi Calm Calm - N/A   Mostly Cloudy
3:21 AM 73.4 °F - 73.4 °F 100% 30.05 in 1.0 mi Calm Calm - N/A   Scattered Clouds
3:28 AM 73.4 °F - 73.4 °F 100% 30.05 in 3.0 mi Calm Calm - N/A   Partly Cloudy
3:53 AM 73.9 °F - 72.0 °F 93% 30.05 in 6.0 mi Calm Calm - N/A   Clear
4:10 AM 73.4 °F - 71.6 °F 94% 30.05 in 2.5 mi Calm Calm - N/A   Clear
4:18 AM 73.4 °F - 71.6 °F 94% 30.05 in 5.0 mi Calm Calm - N/A   Clear
4:53 AM 73.9 °F - 71.1 °F 91% 30.05 in 3.0 mi Calm Calm - N/A   Clear
4:59 AM 73.4 °F - 71.6 °F 94% 30.06 in 1.8 mi Calm Calm - N/A   Partly Cloudy
5:07 AM 73.4 °F - 71.6 °F 94% 30.06 in 0.8 mi Calm Calm - N/A   Mist
5:29 AM 73.4 °F - 71.6 °F 94% 30.06 in 1.2 mi Calm Calm - N/A   Mostly Cloudy
5:37 AM 73.4 °F - 71.6 °F 94% 30.06 in 2.0 mi Calm Calm - N/A   Scattered Clouds
5:45 AM 73.4 °F - 71.6 °F 94% 30.06 in 1.2 mi Calm Calm - N/A   Scattered Clouds
5:53 AM 73.0 °F - 71.1 °F 93% 30.06 in 1.2 mi Calm Calm - N/A   Partly Cloudy
6:04 AM 73.4 °F - 71.6 °F 94% 30.06 in 0.8 mi Calm Calm - N/A   Mist
6:22 AM 73.4 °F - 71.6 °F 94% 30.06 in 1.2 mi Calm Calm - N/A   Partly Cloudy
6:53 AM 73.9 °F - 71.1 °F 91% 30.07 in 3.0 mi Calm Calm - N/A   Partly Cloudy
7:53 AM 79.0 °F - 75.9 °F 90% 30.08 in 9.0 mi SSW 4.6 mph - N/A   Clear
8:23 AM 80.6 °F 86.2 °F 75.2 °F 84% 30.09 in 10.0 mi WSW 4.6 mph - N/A   Partly Cloudy
8:53 AM 82.9 °F 90.2 °F 75.0 °F 77% 30.09 in 10.0 mi WSW 6.9 mph - N/A   Clear
9:53 AM 86.0 °F 93.0 °F 73.0 °F 65% 30.09 in 10.0 mi SSW 6.9 mph - N/A   Clear
10:53 AM 89.1 °F 98.0 °F 73.9 °F 61% 30.09 in 10.0 mi Variable 4.6 mph - N/A   Partly Cloudy
11:53 AM 90.0 °F 96.9 °F 72.0 °F 55% 30.09 in 10.0 mi West 9.2 mph - N/A   Partly Cloudy
12:53 PM 91.0 °F 98.2 °F 72.0 °F 53% 30.08 in 10.0 mi SW 6.9 mph - N/A   Clear
1:53 PM 93.0 °F 100.7 °F 72.0 °F 50% 30.07 in 10.0 mi SSW 5.8 mph - N/A   Scattered Clouds
2:53 PM 91.9 °F 98.4 °F 71.1 °F 50% 30.04 in 10.0 mi Variable 3.5 mph - N/A   Partly Cloudy
3:53 PM 91.9 °F 98.4 °F 71.1 °F 50% 30.03 in 10.0 mi SW 6.9 mph - N/A   Clear
4:53 PM 93.0 °F 100.7 °F 72.0 °F 50% 30.01 in 10.0 mi SSE 4.6 mph - N/A   Scattered Clouds
5:53 PM 91.9 °F 100.7 °F 73.0 °F 54% 29.99 in 10.0 mi SSE 5.8 mph - N/A   Partly Cloudy
6:53 PM 91.0 °F 99.3 °F 73.0 °F 55% 29.99 in 10.0 mi SSE 4.6 mph - N/A   Clear
7:53 PM 84.0 °F 93.7 °F 77.0 °F 79% 29.99 in 10.0 mi Calm Calm - N/A   Clear
8:53 PM 80.1 °F 85.4 °F 75.9 °F 87% 29.99 in 10.0 mi Calm Calm - N/A   Clear
9:53 PM 79.0 °F - 75.0 °F 88% 30.01 in 10.0 mi Calm Calm - N/A   Clear
10:53 PM 78.1 °F - 75.0 °F 90% 30.02 in 9.0 mi Calm Calm - N/A   Clear
11:53 PM 78.1 °F - 73.9 °F 87% 30.02 in 10.0 mi Calm Calm - N/A   Clear